GW7664 Weather Reports


time (UTC)temp
C
wind
direction
speed
KPH
gust
KPH
rain 1hr
cm
rain 24hr
cm
rain mn
cm
humidity
%
barometer
mb
20260906212618 30 181 4.8 8.0 0.00 0.00 0.00 28 1022.2
20260906212114 30 103 8.0 11.3 0.00 0.00 0.00 28 1022.2
20260906211613 30 177 6.4 12.9 0.00 0.00 0.00 28 1022.1
20260906211108 30 144 8.0 11.3 0.00 0.00 0.00 30 1022.1
20260906210604 30 160 11.3 22.5 0.00 0.00 0.00 28 1022.2
20260906210059 30 126 9.7 14.5 0.00 0.00 0.00 29 1022.2
20260906205554 31 113 9.7 14.5 0.00 0.00 0.00 30 1022.5
20260906205050 31 168 9.7 16.1 0.00 0.00 0.00 27 1022.2
20260906204549 31 143 14.5 16.1 0.00 0.00 0.00 28 1022.7
20260906204044 30 167 6.4 12.9 0.00 0.00 0.00 30 1022.6
20260906203544 30 133 17.7 20.9 0.00 0.00 0.00 31 1022.8
20260906203039 30 192 6.4 12.9 0.00 0.00 0.00 33 1022.8
20260906202535 29 67 11.3 14.5 0.00 0.00 0.00 34 1022.9
20260906202030 28 55 8.0 11.3 0.00 0.00 0.00 36 1022.8
20260906201530 28 340 6.4 11.3 0.00 0.00 0.00 35 1023.1
20260906201030 29 52 11.3 16.1 0.00 0.00 0.00 35 1023.2
20260906200526 29 338 4.8 8.0 0.00 0.00 0.00 36 1023.2
20260906200022 28 133 8.0 11.3 0.00 0.00 0.00 35 1023.1
20260906195517 28 334 9.7 11.3 0.00 0.00 0.00 35 1023.2
20260906195013 29 37 6.4 11.3 0.00 0.00 0.00 36 1023.4
20260906194509 28 83 8.0 11.3 0.00 0.00 0.00 35 1023.3
20260906194004 29 12 9.7 11.3 0.00 0.00 0.00 37 1023.8
20260906193504 28 78 8.0 14.5 0.00 0.00 0.00 35 1023.5
20260906192959 28 86 6.4 14.5 0.00 0.00 0.00 35 1023.7
20260906192454 28 75 12.9 17.7 0.00 0.00 0.00 34 1023.9
20260906191953 28 316 4.8 9.7 0.00 0.00 0.00 37 1023.9
20260906191448 28 119 14.5 20.9 0.00 0.00 0.00 37 1023.9
20260906190948 28 80 8.0 11.3 0.00 0.00 0.00 35 1024.1
20260906190446 27 354 4.8 9.7 0.00 0.00 0.00 38 1024.3
20260906185942 28 12 8.0 12.9 0.00 0.00 0.00 36 1024.3
20260906185441 28 110 8.0 12.9 0.00 0.00 0.00 36 1024.3
20260906184940 27 75 12.9 17.7 0.00 0.00 0.00 37 1024.4
20260906184436 28 68 9.7 20.9 0.00 0.00 0.00 36 1024.6
20260906183931 27 116 11.3 14.5 0.00 0.00 0.00 35 1024.7
20260906183427 27 104 6.4 9.7 0.00 0.00 0.00 37 1024.6
20260906182922 27 111 8.0 14.5 0.00 0.00 0.00 37 1024.9
20260906182417 27 109 14.5 17.7 0.00 0.00 0.00 37 1024.9
20260906181914 27 88 12.9 22.5 0.00 0.00 0.00 38 1024.9
20260906181409 27 46 4.8 11.3 0.00 0.00 0.00 35 1025.1
20260906180904 27 347 4.8 11.3 0.00 0.00 0.00 37 1024.9
20260906180359 27 281 3.2 14.5 0.00 0.00 0.00 34 1025.3
20260906175856 27 60 8.0 16.1 0.00 0.00 0.00 38 1025.3
20260906175351 27 45 11.3 14.5 0.00 0.00 0.00 37 1025.2
20260906174851 27 72 14.5 16.1 0.00 0.00 0.00 38 1025.3
20260906174350 26 34 14.5 17.7 0.00 0.00 0.00 36 1025.5
20260906173845 26 63 11.3 14.5 0.00 0.00 0.00 36 1025.5
20260906173341 26 332 4.8 14.5 0.00 0.00 0.00 37 1025.6
20260906172840 26 82 6.4 12.9 0.00 0.00 0.00 39 1025.6
20260906172336 26 46 14.5 17.7 0.00 0.00 0.00 39 1025.7
20260906171831 26 354 8.0 12.9 0.00 0.00 0.00 39 1025.7
20260906171326 26 64 8.0 14.5 0.00 0.00 0.00 38 1025.7
20260906170822 26 37 11.3 16.1 0.00 0.00 0.00 38 1025.8
20260906170318 25 300 4.8 12.9 0.00 0.00 0.00 40 1025.6
20260906165814 26 44 11.3 14.5 0.00 0.00 0.00 38 1025.8
20260906165313 26 26 9.7 12.9 0.00 0.00 0.00 40 1025.9
20260906164814 25 2 8.0 9.7 0.00 0.00 0.00 38 1025.7
20260906164308 25 305 4.8 12.9 0.00 0.00 0.00 39 1025.8
20260906163804 25 300 3.2 8.0 0.00 0.00 0.00 41 1025.8
20260906163300 25 289 4.8 8.0 0.00 0.00 0.00 39 1025.9
20260906162757 25 338 8.0 14.5 0.00 0.00 0.00 41 1025.8
20260906162256 25 357 11.3 12.9 0.00 0.00 0.00 39 1025.9
20260906161756 25 22 9.7 16.1 0.00 0.00 0.00 40 1025.8
20260906161255 25 53 11.3 14.5 0.00 0.00 0.00 41 1025.8
20260906160754 25 70 4.8 11.3 0.00 0.00 0.00 42 1025.9
20260906160249 24 20 6.4 11.3 0.00 0.00 0.00 45 1025.8
20260906155747 23 62 9.7 12.9 0.00 0.00 0.00 44 1025.9
20260906155242 24 55 8.0 11.3 0.00 0.00 0.00 45 1025.7
20260906154737 24 51 8.0 11.3 0.00 0.00 0.00 45 1025.8
20260906154232 24 81 8.0 11.3 0.00 0.00 0.00 44 1025.6
20260906153730 24 78 9.7 12.9 0.00 0.00 0.00 42 1025.7
20260906153220 23 66 8.0 11.3 0.00 0.00 0.00 43 1025.6
20260906152715 23 52 9.7 14.5 0.00 0.00 0.00 43 1025.7
20260906152215 23 44 11.3 12.9 0.00 0.00 0.00 44 1025.7
20260906151709 23 35 9.7 14.5 0.00 0.00 0.00 45 1025.6
20260906151205 23 37 11.3 14.5 0.00 0.00 0.00 44 1025.5
20260906150700 23 37 6.4 11.3 0.00 0.00 0.00 45 1025.7
20260906150155 23 14 8.0 14.5 0.00 0.00 0.00 43 1025.5
20260906145654 22 274 0.0 3.2 0.00 0.00 0.00 45 1025.7
20260906145154 23 81 8.0 9.7 0.00 0.00 0.00 43 1025.7
20260906144654 22 79 6.4 8.0 0.00 0.00 0.00 46 1025.8
20260906144149 22 331 4.8 4.8 0.00 0.00 0.00 47 1025.7
20260906143649 22 336 3.2 4.8 0.00 0.00 0.00 46 1025.7
20260906143146 22 283 1.6 4.8 0.00 0.00 0.00 47 1025.8
20260906142645 22 51 4.8 8.0 0.00 0.00 0.00 48 1026.1
20260906142141 22 199 3.2 4.8 0.00 0.00 0.00 47 1025.8
20260906141639 21 215 4.8 9.7 0.00 0.00 0.00 50 1025.7
20260906141135 21 233 4.8 4.8 0.00 0.00 0.00 51 1025.5
20260906140634 21 222 3.2 8.0 0.00 0.00 0.00 52 1025.6
20260906140129 20 204 3.2 4.8 0.00 0.00 0.00 55 1025.6
20260906135626 20 239 3.2 3.2 0.00 0.00 0.00 54 1025.2
20260906135122 18 255 1.6 3.2 0.00 0.00 0.00 54 1025.1
20260906134617 18 261 1.6 1.6 0.00 0.00 0.00 57 1025.0
20260906134112 17 249 3.2 4.8 0.00 0.00 0.00 57 1025.1
20260906133608 17 241 3.2 3.2 0.00 0.00 0.00 58 1025.0
20260906133103 16 272 0.0 1.6 0.00 0.00 0.00 60 1025.0
20260906132558 16 261 1.6 3.2 0.00 0.00 0.00 61 1025.0
20260906132054 15 261 1.6 3.2 0.00 0.00 0.00 61 1024.9
20260906131549 15 262 1.6 3.2 0.00 0.00 0.00 64 1025.1
20260906131044 15 252 1.6 3.2 0.00 0.00 0.00 63 1025.0
20260906130544 15 236 3.2 4.8 0.00 0.00 0.00 63 1024.6
20260906130039 14 261 1.6 3.2 0.00 0.00 0.00 64 1024.6
20260906125537 14 247 3.2 4.8 0.00 0.00 0.00 62 1024.7
20260906125036 15 226 4.8 4.8 0.00 0.00 0.00 62 1024.7
20260906124532 15 257 1.6 4.8 0.00 0.00 0.00 62 1024.7
20260906124027 13 247 3.2 3.2 0.00 0.00 0.00 65 1024.6
20260906123526 14 242 4.8 8.0 0.00 0.00 0.00 65 1024.6
20260906123021 14 255 1.6 4.8 0.00 0.00 0.00 63 1024.6
20260906122521 14 261 1.6 1.6 0.00 0.00 0.00 63 1024.4
20260906122017 14 245 3.2 3.2 0.00 0.00 0.00 62 1024.4
20260906121513 14 230 4.8 4.8 0.00 0.00 0.00 63 1024.5
20260906121010 15 254 1.6 3.2 0.00 0.00 0.00 61 1024.3
20260906120509 15 258 1.6 3.2 0.00 0.00 0.00 61 1024.1
20260906120008 15 249 3.2 3.2 0.00 0.00 0.00 59 1024.4
20260906115502 15 218 4.8 4.8 0.00 0.00 0.00 60 1024.1
20260906115002 15 262 1.6 1.6 0.00 0.00 0.00 59 1024.4
20260906114456 15 247 3.2 4.8 0.00 0.00 0.00 58 1024.1
20260906113953 16 248 3.2 4.8 0.00 0.00 0.00 57 1024.3
20260906113451 16 234 3.2 3.2 0.00 0.00 0.00 58 1024.0
20260906112946 16 262 1.6 3.2 0.00 0.00 0.00 57 1024.0
20260906112442 16 259 4.8 12.9 0.00 0.00 0.00 56 1024.0
20260906111938 16 262 4.8 9.7 0.00 0.00 0.00 56 1024.0
20260906111436 16 262 0.0 1.6 0.00 0.00 0.00 60 1024.1
20260906110931 16 255 1.6 4.8 0.00 0.00 0.00 60 1023.9
20260906110427 16 263 6.4 11.3 0.00 0.00 0.00 61 1024.1
20260906105926 16 298 4.8 9.7 0.00 0.00 0.00 62 1024.1
20260906105422 17 257 1.6 3.2 0.00 0.00 0.00 63 1024.0
20260906104918 17 264 3.2 9.7 0.00 0.00 0.00 62 1024.1
20260906104416 17 265 4.8 4.8 0.00 0.00 0.00 64 1024.3
20260906103915 18 242 6.4 9.7 0.00 0.00 0.00 60 1024.3
20260906103414 18 261 0.0 3.2 0.00 0.00 0.00 63 1024.4
20260906102910 18 33 6.4 8.0 0.00 0.00 0.00 62 1024.1
20260906102409 18 216 4.8 4.8 0.00 0.00 0.00 61 1024.1
20260906101904 19 292 4.8 4.8 0.00 0.00 0.00 61 1024.3
20260906101359 20 255 4.8 11.3 0.00 0.00 0.00 60 1024.0
20260906100854 20 57 9.7 12.9 0.00 0.00 0.00 57 1024.3
20260906100353 19 139 8.0 9.7 0.00 0.00 0.00 61 1024.0
20260906095848 20 61 4.8 8.0 0.00 0.00 0.00 61 1024.3
20260906095344 20 198 11.3 12.9 0.00 0.00 0.00 59 1024.1
20260906094843 19 86 14.5 20.9 0.00 0.00 0.00 60 1024.0
20260906094339 18 124 8.0 9.7 0.00 0.00 0.00 62 1024.0
20260906093835 18 151 8.0 9.7 0.00 0.00 0.00 61 1023.9
20260906093331 19 234 4.8 4.8 0.00 0.00 0.00 60 1024.1
20260906092826 18 251 1.6 3.2 0.00 0.00 0.00 61 1024.1
20260906092325 19 312 3.2 11.3 0.00 0.00 0.00 61 1024.0
20260906091821 19 328 8.0 14.5 0.00 0.00 0.00 59 1024.0
20260906091317 19 301 1.6 16.1 0.00 0.00 0.00 58 1024.0
20260906090813 20 10 6.4 24.1 0.00 0.00 0.00 58 1023.8
20260906090312 19 340 12.9 17.7 0.00 0.00 0.00 58 1023.8
20260906085807 20 357 14.5 17.7 0.00 0.00 0.00 57 1023.7
20260906085307 19 316 8.0 14.5 0.00 0.00 0.00 56 1023.8
20260906084801 18 79 8.0 12.9 0.00 0.00 0.00 54 1023.5
20260906084300 17 96 6.4 14.5 0.00 0.00 0.00 53 1023.5
20260906083755 16 333 3.2 4.8 0.00 0.00 0.00 57 1023.5
20260906083250 15 263 0.0 4.8 0.00 0.00 0.00 63 1023.4
20260906082745 16 263 1.6 3.2 0.00 0.00 0.00 59 1023.5
20260906082240 17 255 1.6 1.6 0.00 0.00 0.00 56 1023.5
20260906081736 16 271 0.0 0.0 0.00 0.00 0.00 57 1023.4
20260906081231 17 271 0.0 1.6 0.00 0.00 0.00 57 1023.3
20260906080728 18 242 1.6 4.8 0.00 0.00 0.00 50 1023.3
20260906080224 18 197 3.2 3.2 0.00 0.00 0.00 53 1023.4
20260906075724 18 257 1.6 3.2 0.00 0.00 0.00 53 1023.2
20260906075224 17 235 3.2 3.2 0.00 0.00 0.00 55 1023.2
20260906074719 18 248 3.2 3.2 0.00 0.00 0.00 53 1023.2
20260906074218 18 245 3.2 4.8 0.00 0.00 0.00 51 1023.1
20260906073713 17 230 3.2 4.8 0.00 0.00 0.00 52 1023.3
20260906073208 17 233 4.8 4.8 0.00 0.00 0.00 55 1023.3
20260906072704 18 255 1.6 3.2 0.00 0.00 0.00 53 1023.2
20260906072159 17 258 1.6 4.8 0.00 0.00 0.00 53 1022.9
20260906071655 17 262 1.6 1.6 0.00 0.00 0.00 58 1023.3
20260906071154 17 255 1.6 3.2 0.00 0.00 0.00 57 1023.1
20260906070652 17 224 4.8 8.0 0.00 0.00 0.00 56 1023.2
20260906070147 17 257 3.2 3.2 0.00 0.00 0.00 55 1023.1
20260906065646 17 294 1.6 1.6 0.00 0.00 0.00 54 1023.1
20260906065142 17 259 1.6 1.6 0.00 0.00 0.00 56 1023.1
20260906064637 18 256 1.6 3.2 0.00 0.00 0.00 55 1023.2
20260906064133 18 259 1.6 1.6 0.00 0.00 0.00 55 1023.2
20260906063628 18 230 3.2 4.8 0.00 0.00 0.00 54 1023.2
20260906063124 18 218 6.4 9.7 0.00 0.00 0.00 54 1023.2
20260906062619 18 240 4.8 8.0 0.00 0.00 0.00 54 1023.1
20260906062118 18 213 4.8 8.0 0.00 0.00 0.00 55 1022.9
20260906061614 18 199 8.0 9.7 0.00 0.00 0.00 55 1023.3
20260906061114 18 229 8.0 12.9 0.00 0.00 0.00 54 1023.3
20260906060611 17 236 4.8 8.0 0.00 0.00 0.00 59 1022.9
20260906060108 17 247 3.2 3.2 0.00 0.00 0.00 64 1022.9
20260906055603 17 239 4.8 4.8 0.00 0.00 0.00 63 1023.3
20260906055058 18 245 3.2 8.0 0.00 0.00 0.00 61 1023.7
20260906054558 18 238 4.8 9.7 0.00 0.00 0.00 61 1023.5
20260906054053 19 228 8.0 9.7 0.00 0.00 0.00 59 1023.7
20260906053550 20 241 8.0 11.3 0.00 0.00 0.00 56 1023.4
20260906053045 18 241 8.0 11.3 0.00 0.00 0.00 60 1023.4
20260906052540 18 228 8.0 11.3 0.00 0.00 0.00 60 1023.7
20260906052038 19 211 4.8 8.0 0.00 0.00 0.00 59 1023.7
20260906051533 20 249 8.0 9.7 0.00 0.00 0.00 57 1023.7
20260906051028 20 262 4.8 8.0 0.00 0.00 0.00 56 1023.9
20260906050523 20 262 4.8 9.7 0.00 0.00 0.00 55 1024.0
20260906050018 20 267 4.8 9.7 0.00 0.00 0.00 55 1024.0
20260906045516 20 254 6.4 8.0 0.00 0.00 0.00 57 1024.1
20260906045012 20 247 4.8 8.0 0.00 0.00 0.00 55 1024.3
20260906044508 21 253 4.8 9.7 0.00 0.00 0.00 54 1024.3
20260906044003 20 201 3.2 9.7 0.00 0.00 0.00 54 1024.3
20260906043459 20 246 4.8 11.3 0.00 0.00 0.00 52 1024.5
20260906042954 20 210 4.8 9.7 0.00 0.00 0.00 52 1024.1
20260906042453 20 212 6.4 9.7 0.00 0.00 0.00 50 1024.5
20260906041953 20 245 8.0 9.7 0.00 0.00 0.00 50 1024.5
20260906041450 20 222 6.4 8.0 0.00 0.00 0.00 49 1024.4
20260906040949 20 232 6.4 9.7 0.00 0.00 0.00 51 1024.4
20260906040444 18 242 4.8 8.0 0.00 0.00 0.00 55 1024.5
20260906035939 18 241 3.2 3.2 0.00 0.00 0.00 53 1024.3
20260906035435 19 250 1.6 3.2 0.00 0.00 0.00 51 1024.4
20260906034931 20 247 4.8 8.0 0.00 0.00 0.00 52 1024.5
20260906034431 20 249 3.2 4.8 0.00 0.00 0.00 51 1024.1
20260906033926 21 262 3.2 3.2 0.00 0.00 0.00 46 1024.1
20260906033426 20 271 4.8 4.8 0.00 0.00 0.00 48 1024.3
20260906032922 21 268 0.0 4.8 0.00 0.00 0.00 45 1024.1
20260906032419 21 226 4.8 4.8 0.00 0.00 0.00 46 1024.1
20260906031919 20 243 6.4 9.7 0.00 0.00 0.00 47 1024.0
20260906031414 21 253 3.2 3.2 0.00 0.00 0.00 45 1023.8
20260906030909 21 264 1.6 4.8 0.00 0.00 0.00 45 1023.5
20260906030404 21 248 4.8 8.0 0.00 0.00 0.00 44 1023.5
20260906025858 21 259 3.2 8.0 0.00 0.00 0.00 45 1023.4
20260906025353 20 242 1.6 4.8 0.00 0.00 0.00 48 1023.2
20260906024851 20 233 4.8 4.8 0.00 0.00 0.00 48 1023.3
20260906024351 20 238 4.8 4.8 0.00 0.00 0.00 49 1023.4
20260906023846 20 245 3.2 3.2 0.00 0.00 0.00 49 1023.3
20260906023342 21 254 3.2 4.8 0.00 0.00 0.00 48 1023.3
20260906022837 20 244 3.2 4.8 0.00 0.00 0.00 49 1023.2
20260906022337 21 255 3.2 4.8 0.00 0.00 0.00 50 1023.2
20260906021833 21 223 4.8 8.0 0.00 0.00 0.00 49 1023.1
20260906021333 21 220 4.8 4.8 0.00 0.00 0.00 49 1023.1
20260906020828 21 226 3.2 3.2 0.00 0.00 0.00 49 1022.8
20260906020327 21 258 1.6 1.6 0.00 0.00 0.00 48 1022.8
20260906015822 21 255 1.6 3.2 0.00 0.00 0.00 48 1022.7
20260906015321 21 242 1.6 3.2 0.00 0.00 0.00 47 1022.7
20260906014820 22 263 1.6 1.6 0.00 0.00 0.00 47 1022.7
20260906014316 22 263 1.6 3.2 0.00 0.00 0.00 46 1022.7
20260906013812 22 260 1.6 3.2 0.00 0.00 0.00 47 1022.7
20260906013307 22 231 4.8 4.8 0.00 0.00 0.00 47 1022.6
20260906012802 22 221 3.2 3.2 0.00 0.00 0.00 48 1022.8
20260906012257 23 257 0.0 3.2 0.00 0.00 0.00 48 1022.7
20260906011752 23 256 1.6 3.2 0.00 0.00 0.00 47 1022.7
20260906011252 24 251 1.6 3.2 0.00 0.00 0.00 43 1022.5
20260906010748 24 247 4.8 4.8 0.00 0.00 0.00 44 1022.5
20260906010244 25 255 0.0 3.2 0.00 0.00 0.00 44 1022.6
20260906005739 26 251 3.2 3.2 0.00 0.00 0.00 40 1022.8
20260906005238 26 257 1.6 1.6 0.00 0.00 0.00 38 1022.8
20260906004737 27 187 4.8 8.0 0.00 0.00 0.00 35 1022.7
20260906004233 28 257 3.2 4.8 0.00 0.00 0.00 35 1022.7
20260906003733 28 235 4.8 4.8 0.00 0.00 0.00 32 1022.6
20260906003229 28 244 4.8 4.8 0.00 0.00 0.00 32 1022.8
20260906002729 28 244 4.8 4.8 0.00 0.00 0.00 32 1022.7
20260906002229 29 250 4.8 4.8 0.00 0.00 0.00 31 1022.5
20260906001724 29 228 4.8 8.0 0.00 0.00 0.00 31 1022.7
20260906001219 30 255 3.2 4.8 0.00 0.00 0.00 32 1022.8
20260906000714 30 231 3.2 4.8 0.00 0.00 0.00 30 1022.8
20260906000212 30 253 3.2 4.8 0.00 0.00 0.00 31 1022.8
20260905235709 28 261 0.0 4.8 0.00 0.00 0.00 31 1022.7
20260905235204 28 170 9.7 11.3 0.00 0.00 0.00 32 1022.6
20260905234659 29 212 4.8 9.7 0.00 0.00 0.00 32 1022.6
20260905234154 28 80 8.0 11.3 0.00 0.00 0.00 31 1022.8
20260905233649 29 78 11.3 12.9 0.00 0.00 0.00 32 1022.8
20260905233149 28 82 9.7 14.5 0.00 0.00 0.00 32 1022.7
20260905232644 28 123 9.7 16.1 0.00 0.00 0.00 32 1022.6
20260905232140 28 68 8.0 11.3 0.00 0.00 0.00 31 1022.7
20260905231635 28 53 12.9 16.1 0.00 0.00 0.00 33 1022.8
20260905231131 28 75 9.7 14.5 0.00 0.00 0.00 34 1022.7
20260905230627 28 69 16.1 17.7 0.00 0.00 0.00 32 1023.1
20260905230125 28 73 6.4 11.3 0.00 0.00 0.00 33 1022.7
20260905225624 28 116 14.5 22.5 0.00 0.00 0.00 33 1023.2
20260905225120 28 94 14.5 16.1 0.00 0.00 0.00 34 1023.1
20260905224619 28 104 12.9 20.9 0.00 0.00 0.00 32 1022.9
20260905224119 28 101 16.1 17.7 0.00 0.00 0.00 33 1022.9
20260905223616 28 78 19.3 32.2 0.00 0.00 0.00 33 1023.1
20260905223112 27 77 22.5 29.0 0.00 0.00 0.00 36 1023.1
20260905222612 27 79 19.3 29.0 0.00 0.00 0.00 36 1023.1
20260905222108 27 94 22.5 27.4 0.00 0.00 0.00 35 1023.2
20260905221603 28 100 12.9 17.7 0.00 0.00 0.00 34 1023.1
20260905221100 27 120 17.7 27.4 0.00 0.00 0.00 36 1023.2
20260905220555 27 179 11.3 24.1 0.00 0.00 0.00 35 1023.1
20260905220051 27 234 14.5 33.8 0.00 0.00 0.00 35 1022.9
20260905215550 27 258 12.9 16.1 0.00 0.00 0.00 41 1022.9
20260905215046 29 258 3.2 3.2 0.00 0.00 0.00 36 1022.8
20260905214543 28 280 0.0 3.2 0.00 0.00 0.00 28 1022.8
20260905214043 28 302 1.6 3.2 0.00 0.00 0.00 31 1022.8
20260905213538 29 279 1.6 3.2 0.00 0.00 0.00 31 1023.1